Date,TemperatureHighF,TemperatureAvgF,TemperatureLowF,DewpointHighF,DewpointAvgF,DewpointLowF,HumidityHigh,HumidityAvg,HumidityLow,PressureMaxIn,PressureMinIn,WindSpeedMaxMPH,WindSpeedAvgMPH,GustSpeedMaxMPH,PrecipitationSumIn
2012-1-1,62.4,44.0,28.3,49.4,33.6,19.9,96,71,40,30.17,29.93,22,3,22,0.01
2012-1-2,42.0,31.7,17.8,23.1,11.8,1.3,84,48,22,30.17,29.95,23,4,23,0.00
2012-1-3,30.4,21.7,16.6,12.0,4.9,-0.1,77,50,31,30.42,30.17,24,4,24,0.00
2012-1-4,49.6,28.2,13.3,18.2,9.9,2.1,84,54,18,30.44,30.17,19,2,20,0.00
2012-1-5,56.4,36.9,25.3,30.4,22.7,17.6,82,61,27,30.23,30.11,11,2,11,0.00
2012-1-6,65.6,40.4,25.1,33.3,23.7,6.2,89,60,13,30.20,30.04,20,1,20,0.00
2012-1-7,63.9,46.4,29.5,48.0,37.9,23.0,95,74,53,30.13,30.02,20,2,20,0.00
2012-1-8,51.9,46.7,40.7,49.2,45.1,39.6,97,94,86,30.24,30.11,4,0,4,0.11
2012-1-9,53.7,49.1,46.7,50.3,47.8,45.9,97,95,88,30.22,30.07,14,2,14,0.11
2012-1-10,55.6,49.4,44.7,50.3,47.5,43.9,100,93,80,30.13,29.94,9,1,9,0.04
2012-1-11,49.8,49.3,49.1,48.6,48.4,48.3,97,97,96,29.94,29.86,2,0,2,0.18
2012-1-13,37.9,27.8,20.3,19.3,14.7,11.3,84,59,40,30.16,29.78,26,3,26,0.05
2012-1-14,45.7,29.7,15.1,28.7,17.6,13.0,92,66,35,30.29,30.16,25,3,25,0.00
2012-1-15,47.2,37.2,25.9,29.0,22.7,17.8,85,59,35,30.53,30.17,16,2,16,0.00
2012-1-16,44.1,34.2,23.8,30.5,25.0,20.6,89,71,48,30.59,30.39,22,3,22,0.00
2012-1-17,54.6,46.9,34.3,50.6,42.3,29.2,96,84,72,30.39,29.93,22,6,26,0.76
2012-1-18,49.6,38.3,28.4,48.5,30.1,22.0,96,74,50,30.12,29.92,15,3,15,0.00
2012-1-19,41.4,32.2,23.0,26.6,23.6,20.9,92,72,50,30.23,30.10,15,3,16,0.00
2012-1-20,56.3,43.2,33.0,45.6,37.0,25.5,96,80,57,30.19,30.06,13,2,13,0.30
2012-1-21,54.7,48.0,43.1,52.0,46.7,42.0,98,95,90,30.11,29.88,14,2,15,0.56
2012-1-22,47.6,43.4,37.6,45.7,41.3,36.6,96,92,87,30.27,30.10,7,1,8,0.05
2012-1-23,48.5,42.4,37.3,46.9,41.3,36.3,97,96,92,30.24,30.02,17,3,17,0.61
2012-1-24,60.7,44.8,33.7,46.1,38.8,32.2,98,83,45,30.30,30.06,11,1,12,0.00
2012-1-25,61.9,45.7,29.2,40.2,33.5,28.1,100,69,33,30.37,30.20,14,2,14,0.00
2012-1-26,59.4,53.4,48.8,56.6,48.2,38.8,97,83,61,30.20,29.66,32,4,32,1.01
2012-1-27,58.4,51.0,32.5,55.9,41.7,29.5,94,74,36,30.05,29.61,23,4,24,0.00
2012-1-28,58.4,39.6,28.1,36.7,29.1,13.1,95,70,42,30.29,30.04,28,2,29,0.01
2012-1-29,49.2,35.9,22.5,22.0,10.3,-13.8,79,45,10,30.41,30.28,21,2,24,0.00
2012-1-30,57.9,38.9,25.0,26.8,20.1,12.1,78,54,20,30.48,30.35,18,2,18,0.00
2012-1-31,63.4,44.6,27.1,29.8,24.9,19.8,84,53,22,30.45,30.30,18,3,19,0.00
2012-2-1,41.1,38.1,36.1,30.7,29.3,28.1,75,71,66,30.32,30.29,6,1,7,0.00
2012-2-4,53.4,50.9,50.1,50.4,49.3,48.6,97,94,89,30.14,30.07,13,2,13,1.20
2012-2-5,67.9,51.7,42.0,52.8,46.0,38.6,97,83,40,30.16,29.97,18,2,18,0.01
2012-2-6,52.1,41.8,30.8,40.5,36.7,29.3,95,83,60,30.25,30.12,12,2,12,0.00
2012-2-7,58.4,39.0,28.3,38.2,30.3,26.7,96,76,36,30.25,30.14,8,1,11,0.01
2012-2-8,52.2,39.2,29.6,36.0,30.9,27.1,92,74,47,30.24,30.12,10,1,16,0.00
2012-2-9,47.6,35.3,26.1,30.7,27.2,23.6,93,75,48,30.32,30.20,18,2,18,0.00
2012-2-10,47.4,36.8,25.3,33.9,29.5,23.6,94,77,54,30.23,29.92,15,2,16,0.00
2012-2-11,39.9,28.3,17.5,33.1,16.3,-0.5,93,63,37,30.22,29.83,32,5,36,0.00
2012-2-12,41.9,25.9,12.6,13.8,6.6,-0.3,70,47,27,30.37,30.21,17,2,20,0.00
2012-2-13,48.9,32.3,16.6,21.6,14.5,10.4,83,53,25,30.36,30.14,15,2,15,0.00
2012-2-14,40.4,35.8,31.8,36.4,32.3,20.0,96,87,57,30.17,30.04,20,4,20,0.01
2012-2-15,65.0,43.2,29.7,40.9,31.5,22.8,97,71,26,30.34,30.17,13,1,13,0.00
2012-2-16,56.6,44.4,37.5,51.0,40.6,32.1,96,86,76,30.28,30.03,7,1,7,0.10
2012-2-17,62.2,45.6,31.3,43.3,35.2,27.9,98,73,37,30.20,30.06,13,1,13,0.01
2012-2-18,61.8,47.4,33.4,45.2,36.9,30.3,93,70,37,30.15,29.95,13,2,14,0.03
2012-2-19,47.1,41.4,35.2,45.2,39.3,29.8,95,92,76,29.99,29.69,14,2,16,0.60
2012-2-20,54.7,39.0,27.8,30.9,24.8,3.9,95,65,17,30.34,29.98,16,2,16,0.00
2012-2-21,50.0,37.8,24.7,40.9,31.0,22.5,92,78,59,30.34,30.05,23,4,26,0.00
2012-2-22,63.4,52.9,42.8,48.2,40.0,30.2,92,63,43,30.05,29.59,27,7,28,0.05
2012-2-23,70.1,58.7,44.9,55.3,49.5,43.4,97,74,50,29.69,29.55,31,6,32,0.01
2012-2-24,70.3,57.2,37.6,58.5,42.1,9.4,88,62,22,29.93,29.51,34,6,36,0.00
2012-2-25,48.7,37.7,28.1,19.4,14.5,2.7,68,43,20,30.35,29.93,33,4,33,0.00
2012-2-26,52.3,36.1,22.7,23.2,17.9,11.7,81,54,24,30.51,30.35,19,3,19,0.00
2012-2-27,64.5,47.3,29.6,47.7,36.9,21.6,93,69,52,30.48,30.31,16,2,16,0.00
2012-2-28,65.4,50.1,33.2,46.3,38.9,32.1,96,71,38,30.45,30.27,16,2,16,0.00
2012-2-29,62.1,56.0,50.1,57.4,53.5,46.1,100,92,76,30.27,29.84,26,6,26,0.19
2012-3-1,75.2,60.8,42.4,56.5,33.1,2.1,95,51,10,29.89,29.79,23,4,25,0.00
2012-3-2,61.2,50.9,40.1,58.2,47.2,30.0,97,88,63,29.92,29.68,22,4,22,1.00
2012-3-3,58.6,51.5,44.4,56.1,40.5,17.1,96,70,34,29.81,29.58,18,3,18,0.63
2012-3-4,44.6,39.9,34.3,30.9,17.7,7.0,64,43,25,30.04,29.73,27,5,27,0.00
2012-3-5,48.4,40.5,27.4,23.1,16.8,7.3,70,41,23,30.50,29.91,29,4,29,0.00
2012-3-6,57.6,38.7,23.2,25.7,19.9,15.9,82,54,24,30.66,30.50,15,2,15,0.00
2012-3-7,57.6,46.1,30.2,45.8,36.6,23.8,82,70,58,30.66,30.44,17,2,17,0.00
2012-3-8,65.5,56.6,50.0,54.1,49.6,44.7,92,79,58,30.44,30.10,22,4,23,0.35
2012-3-9,57.6,51.5,40.7,53.6,32.2,8.7,96,58,19,30.33,30.05,20,3,20,0.27
2012-3-10,63.4,45.1,30.4,29.1,21.8,11.9,81,48,19,30.53,30.33,12,2,12,0.00
2012-3-11,64.0,45.7,27.0,40.1,29.5,22.3,85,59,24,30.58,30.42,12,2,15,0.00
2012-3-12,58.2,52.0,47.5,51.7,48.2,39.5,96,88,71,30.46,30.28,12,2,12,0.10
2012-3-13,76.4,60.6,52.7,58.8,54.6,46.2,97,83,41,30.28,30.11,15,3,16,0.16
2012-3-14,79.7,59.5,41.8,53.1,45.3,35.1,97,69,25,30.29,30.16,13,1,13,0.01
2012-3-15,81.2,61.0,46.6,60.1,50.9,38.9,96,74,27,30.29,30.16,21,2,21,0.70
2012-3-16,79.4,60.8,49.4,59.8,52.4,45.3,97,79,35,30.29,30.11,20,2,20,0.17
2012-3-17,74.4,59.0,50.0,60.0,53.8,48.9,100,85,49,30.24,30.15,10,1,10,0.05
2012-3-18,75.7,58.8,50.9,61.0,54.6,50.1,100,88,52,30.32,30.17,17,1,18,0.94
2012-3-19,81.6,62.3,49.8,60.7,52.9,49.1,98,77,36,30.25,30.09,14,1,14,0.01
2012-3-20,81.0,65.1,51.4,58.1,53.0,49.4,95,70,38,30.20,30.08,17,2,17,0.00
2012-3-21,74.3,63.3,53.2,58.0,53.7,50.8,95,74,49,30.25,30.15,13,1,14,0.00
2012-3-22,73.6,62.3,53.4,60.0,55.8,50.3,95,81,57,30.24,30.12,13,2,14,0.00
2012-3-23,69.3,61.4,55.9,62.8,58.8,54.5,100,92,78,30.16,29.93,15,2,18,0.96
2012-3-24,70.5,60.7,49.4,59.2,50.8,39.4,95,74,38,29.93,29.72,25,4,25,0.06
2012-3-25,62.1,54.8,44.1,48.6,45.9,42.8,96,74,57,29.90,29.74,22,3,26,0.24
2012-3-26,76.5,64.3,53.8,47.8,42.2,30.2,74,50,24,30.07,29.89,21,3,21,0.00
2012-3-27,70.2,57.1,44.2,46.6,38.4,25.4,90,56,29,30.26,30.06,16,2,16,0.00
2012-3-28,76.4,61.2,44.6,52.2,46.0,39.3,82,61,39,30.22,29.95,22,4,22,0.00
2012-3-29,81.3,67.3,54.8,52.5,48.8,43.9,79,55,32,29.97,29.85,16,2,16,0.00
2012-3-30,78.0,60.6,47.3,58.0,49.9,39.5,96,73,33,30.00,29.86,20,2,20,0.40
2012-3-31,75.3,63.2,52.2,59.5,53.2,38.6,97,75,36,29.89,29.73,14,1,14,0.27
2012-4-1,80.2,58.2,42.9,53.4,46.6,37.8,96,73,26,29.90,29.76,33,2,33,0.01
2012-4-2,84.5,66.2,48.2,58.0,51.6,43.6,95,67,29,29.90,29.74,18,2,22,0.00
2012-4-3,81.3,62.7,53.7,60.8,56.8,51.5,96,83,48,29.96,29.85,19,1,21,0.45
2012-4-4,80.3,62.4,51.3,61.9,55.5,50.5,97,82,44,29.93,29.68,12,2,13,0.13
2012-4-5,76.3,58.9,50.3,60.7,55.4,48.6,98,90,54,29.75,29.63,15,2,16,1.01
2012-4-6,65.2,52.4,44.5,49.0,42.5,30.5,96,75,31,30.07,29.74,15,3,17,0.29
2012-4-8,62.0,59.6,57.1,42.1,41.0,39.3,56,52,46,30.05,30.03,6,1,6,0.00
2012-4-9,74.0,60.5,47.2,41.2,21.6,-11.2,61,31,6,30.09,29.91,27,4,27,0.00
2012-4-10,70.5,56.2,39.3,35.8,31.2,19.8,75,44,27,30.00,29.84,32,6,36,0.00
2012-4-11,60.9,49.2,34.6,24.2,17.6,2.4,62,33,14,30.15,29.89,21,4,22,0.00
2012-4-12,64.1,45.7,26.8,32.3,22.7,11.0,83,48,17,30.29,30.12,15,2,16,0.00
2012-4-13,39.8,36.0,33.5,31.7,30.6,29.3,85,80,72,30.20,30.18,1,0,1,0.00
2012-4-14,64.7,55.7,49.8,44.9,43.8,41.9,79,66,46,30.23,30.20,9,1,11,0.00
2012-4-15,50.3,44.7,41.8,44.0,41.5,39.6,93,89,79,30.23,30.17,2,0,3,0.00
2012-4-28,67.5,63.5,59.2,59.4,57.8,56.3,91,82,75,30.12,30.04,8,2,10,4.02
2012-4-29,82.6,66.9,55.1,62.5,58.0,53.8,97,77,43,30.15,30.06,12,2,12,0.00
2012-4-30,83.8,69.4,54.9,63.1,59.3,53.8,97,74,45,30.18,30.04,20,2,21,0.00
2012-5-1,75.0,67.2,63.3,63.9,61.7,60.3,90,83,69,30.12,30.06,11,2,12,0.00
2012-5-4,65.5,62.0,61.1,60.6,59.5,58.7,94,92,85,30.08,30.04,4,1,4,0.03
2012-5-7,79.6,71.4,63.4,62.1,59.7,56.3,94,68,51,30.00,29.89,13,3,13,0.13
2012-5-8,76.6,67.0,61.6,65.9,62.6,59.9,96,87,68,29.93,29.78,15,3,15,1.10
2012-5-9,65.8,60.8,49.4,62.2,55.8,44.8,97,85,54,29.85,29.69,20,2,20,0.17
2012-5-10,72.1,57.6,44.1,46.6,43.1,36.4,95,64,35,30.00,29.80,13,2,13,0.00
2012-5-11,50.8,47.3,43.6,44.1,42.9,41.3,93,85,77,30.04,30.00,3,0,3,0.00
2012-5-14,75.0,67.1,58.2,62.5,60.5,57.1,97,81,64,29.99,29.88,14,3,14,1.35
2012-5-15,77.8,64.3,56.9,62.9,59.0,56.1,97,85,56,29.98,29.90,13,2,14,0.11
2012-5-16,80.3,65.0,56.1,61.0,57.8,54.9,97,80,45,29.99,29.88,9,1,10,0.00
2012-5-17,82.3,65.9,52.4,59.6,55.4,49.6,97,74,36,30.03,29.91,12,2,12,0.00
2012-5-18,77.5,65.8,56.4,59.5,57.0,48.6,96,76,40,30.08,30.00,13,2,13,0.00
2012-5-19,80.5,66.5,54.8,60.4,56.7,50.3,95,73,47,30.14,30.02,16,2,16,0.00
2012-5-20,80.8,71.1,56.5,58.5,52.8,47.3,93,58,35,30.14,30.02,16,3,16,0.00
2012-5-21,84.2,62.1,49.3,62.6,54.9,47.9,96,81,38,30.07,29.92,11,1,11,0.43
2012-5-22,76.3,62.4,55.2,61.7,58.2,54.3,97,88,53,29.94,29.82,9,1,9,0.17
2012-5-23,75.3,63.5,57.6,63.3,59.5,56.3,100,88,60,29.93,29.84,10,1,11,0.01
2012-5-24,81.3,67.8,58.5,62.8,59.0,54.4,97,78,43,30.01,29.92,15,2,17,0.00
2012-5-26,87.7,79.6,68.6,67.5,63.7,55.9,86,62,37,30.11,30.05,14,2,14,0.00
2012-5-27,83.5,72.8,61.8,66.1,62.7,59.3,96,74,48,30.11,30.01,14,2,14,0.00
2012-5-28,84.0,72.0,62.0,66.5,62.8,59.5,94,76,47,30.05,29.93,21,2,21,0.04
2012-5-29,81.6,71.1,63.5,67.1,65.1,62.0,97,83,57,29.98,29.81,15,2,15,0.16
2012-5-30,85.2,71.8,59.5,63.6,52.2,30.4,97,61,19,29.87,29.77,17,2,17,0.00
2012-5-31,82.9,68.1,51.0,64.9,56.0,48.8,94,69,39,29.91,29.78,18,2,20,0.67
2012-6-1,75.3,65.5,53.6,64.4,59.3,48.6,96,82,46,29.85,29.70,18,3,20,0.14
2012-6-2,71.8,58.6,44.6,51.0,47.3,42.6,95,70,45,29.97,29.82,15,2,15,0.00
2012-6-3,81.0,63.9,44.8,53.3,47.9,43.1,95,63,32,30.01,29.87,17,2,19,0.00
2012-6-4,57.6,57.0,56.1,53.2,52.5,51.6,87,85,82,29.88,29.83,3,0,3,0.00
2012-6-5,71.6,67.8,64.7,59.6,59.1,58.0,82,74,64,29.80,29.76,10,3,10,0.47
2012-6-8,82.5,73.8,60.4,60.7,57.5,51.6,91,60,40,30.07,29.98,13,2,13,0.13
2012-6-9,80.3,68.2,56.3,62.5,59.1,54.9,96,76,46,30.10,29.99,13,2,13,0.00
2012-6-10,66.2,61.6,59.2,61.7,59.1,56.8,96,92,80,30.15,30.04,7,1,7,0.30
2012-6-11,78.1,67.5,60.1,67.9,63.8,58.7,97,89,68,30.13,29.97,16,2,16,0.12
2012-6-12,85.3,72.5,64.7,71.8,67.6,63.1,96,86,59,29.99,29.85,8,1,9,0.18
2012-6-13,82.1,65.1,59.7,67.8,61.9,58.8,97,91,60,29.96,29.92,7,1,8,0.01
2012-6-15,73.9,68.2,61.9,62.4,61.0,58.8,91,79,66,30.20,30.14,7,1,7,0.68
2012-6-16,79.3,66.6,55.9,62.7,58.7,54.8,97,78,54,30.27,30.12,11,2,11,0.00
2012-6-17,81.8,69.3,60.2,63.6,60.0,54.3,91,75,50,30.17,30.00,12,2,12,0.00
2012-6-18,81.5,71.2,62.1,64.9,62.5,59.8,94,76,52,30.10,30.00,10,2,11,0.00
2012-6-19,86.5,71.4,56.5,65.1,61.0,55.4,96,74,46,30.18,30.10,11,2,12,0.00
2012-6-20,87.3,71.6,58.3,69.3,62.8,56.9,96,77,43,30.19,30.07,9,1,9,0.00
2012-6-21,88.8,73.5,61.2,68.4,64.5,60.1,97,77,46,30.10,29.92,11,1,11,0.00
2012-6-22,86.3,71.9,63.2,71.3,65.8,61.7,95,83,52,29.96,29.85,13,1,13,0.06
2012-6-23,87.7,71.1,61.9,69.3,65.5,61.0,97,84,49,30.00,29.90,10,1,10,0.10
2012-6-24,86.9,73.8,65.1,70.9,67.3,63.6,98,82,51,30.01,29.88,14,1,15,0.00
2012-6-25,90.1,75.7,66.3,69.4,64.1,57.1,97,73,38,29.91,29.69,14,2,14,0.00
2012-6-26,82.5,71.8,58.1,63.5,56.8,50.9,90,63,39,29.87,29.73,17,3,17,0.00
2012-6-27,86.3,68.1,49.5,62.7,53.8,47.8,94,66,33,30.03,29.87,10,1,11,0.00
2012-6-28,93.3,73.5,55.2,69.2,59.8,46.2,97,69,27,30.07,29.93,14,2,14,0.00
2012-6-29,99.8,78.4,58.5,72.7,62.1,55.8,92,65,28,29.95,29.83,10,2,12,0.00
2012-6-30,101.2,80.9,63.5,73.2,66.0,55.8,95,67,28,29.93,29.83,12,1,12,0.00
2012-7-1,97.8,78.5,65.0,75.0,66.4,57.6,95,72,31,30.03,29.87,24,2,24,0.18
2012-7-2,90.8,76.1,64.4,70.7,66.1,60.1,96,75,40,30.15,29.95,21,2,21,0.57
2012-7-3,70.7,67.7,65.5,67.6,65.8,64.0,97,94,90,30.03,29.97,4,0,4,0.00
2012-7-4,88.9,80.4,70.4,72.4,68.5,60.8,91,70,50,30.00,29.93,14,2,14,0.05
2012-7-5,97.1,73.9,64.4,71.8,66.4,62.8,97,81,37,30.02,29.91,38,1,38,0.85
2012-7-6,93.8,75.4,63.4,69.1,64.9,61.8,97,74,42,30.01,29.93,14,2,14,0.00
2012-7-7,94.6,77.8,64.3,72.2,67.7,59.6,97,75,38,30.04,29.94,12,2,12,0.00
2012-7-8,92.0,76.7,66.6,74.0,69.5,65.1,96,81,52,30.00,29.86,14,2,15,0.13
2012-7-9,88.1,73.5,65.6,73.4,68.7,64.0,96,86,59,29.95,29.87,13,1,15,0.18
2012-7-10,86.8,72.6,67.1,71.1,68.2,63.3,97,87,58,30.02,29.92,15,1,15,0.91
2012-7-11,76.3,69.2,66.1,70.0,66.7,65.0,97,92,79,30.12,29.99,8,1,8,0.60
2012-7-12,66.9,66.3,65.6,65.4,64.7,64.4,97,95,94,30.12,30.08,4,1,4,0.01
2012-7-13,83.6,74.3,67.3,72.0,68.8,66.2,97,84,61,30.18,30.07,11,2,11,0.80
2012-7-14,85.1,74.0,67.6,71.6,68.4,66.0,98,84,58,30.19,30.09,14,2,15,0.18
2012-7-15,86.2,72.6,65.8,72.2,68.0,64.8,98,87,56,30.19,30.07,17,2,17,0.01
2012-7-16,91.0,73.3,63.9,71.1,66.6,61.6,98,82,49,30.12,29.96,11,1,11,0.00
2012-7-18,92.7,76.3,67.8,70.4,68.2,63.5,97,79,44,30.03,29.92,16,2,16,0.13
2012-7-19,89.0,72.4,65.2,72.6,67.9,64.5,98,87,53,30.05,29.95,16,1,18,0.40
2012-7-20,72.3,71.5,70.6,71.1,70.5,69.7,97,97,95,29.98,29.94,4,1,4,0.67
2012-7-21,85.0,73.9,67.1,72.4,69.0,66.2,98,87,62,30.02,29.94,19,2,19,0.01
2012-7-25,92.8,82.4,72.0,75.9,72.2,66.6,94,73,51,29.98,29.88,14,2,14,0.00
2012-7-26,93.4,79.6,68.6,72.8,69.6,63.8,98,76,43,29.94,29.79,17,2,17,0.01
2012-7-27,92.4,76.4,67.6,71.6,68.0,64.0,94,79,44,29.90,29.83,14,1,15,0.00
2012-7-29,80.8,69.8,60.5,66.2,63.0,59.1,96,81,60,30.02,29.98,6,1,6,0.00
2012-8-1,74.0,71.8,69.8,70.5,69.2,67.9,94,92,89,29.90,29.89,3,0,3,0.48
2012-8-2,81.8,70.7,63.8,72.8,67.3,62.9,98,90,65,29.94,29.84,13,1,25,0.29
2012-8-3,84.0,73.1,64.9,72.4,68.5,64.0,97,86,65,30.05,29.89,18,2,18,1.44
2012-8-4,83.0,71.5,65.8,72.7,67.9,64.7,100,89,66,30.17,30.02,12,1,12,1.12
2012-8-5,86.3,75.2,66.2,70.3,68.0,65.2,97,81,53,30.20,30.09,14,2,15,0.00
2012-8-6,85.3,73.5,68.1,71.9,68.5,66.6,97,86,60,30.11,29.99,9,2,9,0.24
2012-8-7,85.2,72.2,67.2,72.2,69.0,66.2,97,91,63,30.03,29.95,12,1,12,0.11
2012-8-8,86.2,72.5,65.6,72.2,68.4,64.5,97,88,58,30.02,29.94,12,2,13,0.07
2012-8-9,86.7,69.6,64.3,72.5,66.0,63.6,98,90,59,30.00,29.85,15,1,15,0.33
2012-8-10,82.7,71.4,64.1,70.3,66.7,63.1,97,86,65,29.86,29.78,16,3,17,0.01
2012-8-11,82.9,71.2,63.9,67.8,65.4,60.9,96,83,60,29.94,29.82,12,1,12,0.01
2012-8-12,83.3,69.7,57.4,67.2,61.4,56.3,96,78,49,30.02,29.94,9,1,9,0.00
2012-8-13,82.5,70.1,61.5,65.8,61.1,53.0,98,77,41,30.04,29.92,12,2,12,0.00
2012-8-14,66.6,66.4,66.4,61.8,61.8,61.7,85,85,85,29.97,29.97,4,2,5,0.00
2012-8-17,77.5,76.3,75.5,67.8,66.9,65.9,76,73,71,29.90,29.87,7,3,8,0.00
2012-8-19,78.3,70.9,64.4,66.6,64.2,61.6,95,81,65,29.90,29.81,7,1,8,0.20
2012-8-20,80.2,66.6,59.0,63.7,60.3,54.3,97,84,44,30.00,29.86,17,1,17,0.19
2012-8-21,79.0,65.0,55.5,63.6,58.8,53.6,98,83,47,30.09,29.99,11,1,11,0.00
2012-8-22,81.0,67.1,57.1,65.2,59.7,55.8,97,80,47,30.13,30.05,10,1,10,0.00
2012-8-23,81.8,68.2,59.7,65.3,61.8,57.3,96,82,48,30.15,30.08,9,1,9,0.00
2012-8-24,83.3,72.4,61.2,65.9,62.1,54.6,97,73,43,30.17,30.08,13,2,13,0.01
2012-8-25,82.8,66.6,58.1,67.7,61.4,57.3,98,86,49,30.19,30.08,21,2,21,0.35
2012-8-26,85.8,69.7,60.2,69.8,63.5,57.6,100,84,42,30.19,30.08,11,1,11,0.06
2012-8-27,84.5,70.6,61.4,66.3,63.1,58.6,100,81,48,30.17,30.02,15,2,15,0.01
2012-8-28,81.1,69.2,61.0,71.9,65.2,59.8,97,88,66,30.06,29.95,8,1,9,0.00
2012-8-29,83.6,72.4,66.6,71.4,68.3,65.1,96,88,64,30.00,29.93,7,1,8,0.11
2012-8-30,82.5,72.5,65.5,71.4,68.3,64.5,98,88,67,30.15,29.97,14,2,16,0.36
2012-8-31,90.2,75.1,64.5,72.5,68.1,63.3,97,81,53,30.22,30.10,12,1,12,0.00
2012-9-1,89.7,73.8,65.6,72.7,67.9,64.1,96,84,48,30.16,30.05,16,1,16,0.24
2012-9-2,84.3,71.4,65.5,73.3,68.4,64.1,98,91,66,30.08,29.93,13,1,14,1.19
2012-9-3,81.5,71.9,67.7,72.1,68.9,65.8,99,91,70,29.99,29.90,19,2,19,0.98
2012-9-4,74.0,69.5,67.1,70.2,68.0,66.2,98,95,87,29.96,29.89,8,1,10,0.21
2012-9-5,81.8,73.3,68.0,71.8,69.2,67.0,98,88,71,29.94,29.85,17,3,17,0.03
2012-9-6,87.3,73.6,65.6,70.8,67.9,64.4,99,84,55,29.96,29.86,9,1,9,0.00
2012-9-7,87.8,72.2,62.3,70.4,66.0,61.3,98,84,48,29.99,29.86,10,1,10,0.00
2012-9-8,86.0,71.0,58.2,70.4,64.5,57.0,97,83,49,29.88,29.68,15,2,16,0.15
2012-9-9,70.3,58.6,53.7,57.1,53.5,50.4,96,85,54,29.95,29.83,12,2,12,0.00
2012-9-10,79.7,67.2,46.6,57.6,51.6,45.1,96,62,40,30.16,30.07,11,2,11,0.00
2012-9-11,76.3,69.8,59.4,61.1,58.7,55.3,93,70,53,30.30,30.20,14,2,14,0.00
2012-9-12,77.3,65.1,57.4,61.0,57.1,51.6,97,79,45,30.35,30.25,13,1,13,0.00
2012-9-13,74.2,64.9,55.5,58.2,55.3,52.8,100,75,53,30.36,30.25,10,2,10,0.00
2012-9-14,78.8,71.5,57.5,64.4,57.4,55.2,95,64,53,30.26,30.17,8,3,8,0.00
2012-9-15,82.0,65.5,55.1,64.2,58.4,54.2,100,81,43,30.25,30.10,7,1,7,0.00
2012-9-16,78.2,65.9,59.8,66.5,61.4,55.2,97,87,55,30.25,30.02,12,2,12,0.05
2012-9-17,73.0,65.9,60.2,67.0,62.3,55.2,97,89,55,30.25,29.80,18,2,18,0.97
2012-9-18,73.0,66.0,60.2,66.7,63.6,55.2,97,93,55,30.25,29.67,34,5,34,3.60
2012-9-19,75.3,63.6,48.4,59.8,54.8,47.1,97,76,55,30.25,29.87,10,2,10,0.01
2012-9-20,75.3,65.8,55.9,59.9,57.4,54.8,96,77,55,30.25,30.01,17,2,17,0.00
2012-9-21,78.5,65.3,51.6,64.2,57.7,50.8,98,79,55,30.25,29.97,15,2,18,0.01
2012-9-22,81.8,70.2,59.7,61.0,57.0,44.6,96,67,41,30.25,29.90,20,4,20,0.00
2012-9-23,76.3,63.7,46.5,55.2,45.0,40.1,90,56,32,30.25,30.02,12,2,12,4.64
2012-9-24,71.5,52.8,37.9,50.1,43.0,36.6,96,74,37,30.25,30.16,13,1,13,0.00
2012-9-25,75.3,58.2,42.2,61.5,51.7,40.9,96,81,56,30.26,30.18,14,2,14,0.00
2012-9-26,80.8,64.9,51.4,64.4,57.8,50.3,97,81,51,30.23,30.13,12,1,12,0.00
2012-9-27,80.8,63.9,52.1,65.2,56.8,51.3,98,82,44,30.24,30.10,8,1,8,0.01
2012-9-28,81.8,65.7,54.7,64.8,59.2,53.9,98,83,48,30.15,29.96,12,1,12,0.00
2012-9-29,78.0,65.2,59.3,64.5,60.3,57.0,96,86,54,30.03,29.82,15,1,15,0.01
2012-9-30,72.7,60.4,52.7,59.9,55.8,51.8,98,86,60,29.93,29.83,14,1,15,0.00
2012-10-1,60.4,58.2,56.9,58.5,56.9,55.7,97,96,89,29.86,29.74,16,1,16,1.97
2012-10-2,73.1,65.7,58.4,66.0,61.7,57.5,100,88,67,29.97,29.73,23,4,23,1.18
2012-10-3,74.8,63.4,56.5,61.6,58.5,54.1,100,86,52,30.19,29.97,15,2,15,0.00
2012-10-4,78.2,63.1,53.4,59.0,55.9,51.9,96,80,44,30.26,30.17,11,1,11,0.00
2012-10-5,76.5,60.1,50.9,57.5,53.5,49.8,100,82,45,30.24,30.03,14,1,14,0.00
2012-10-6,78.2,60.8,49.9,61.4,54.9,48.8,97,83,54,30.07,29.89,10,2,10,0.01
2012-10-7,65.3,54.3,46.7,59.5,51.1,42.1,97,89,80,30.13,29.94,15,2,15,0.35
2012-10-8,48.7,46.2,44.6,44.8,43.2,40.8,94,89,82,30.21,30.12,9,1,10,0.00
2012-10-9,60.2,49.8,45.5,49.7,45.5,42.6,94,86,65,30.20,30.10,13,2,13,0.00
2012-10-10,68.3,53.7,43.7,51.1,46.3,42.1,94,79,49,30.17,30.07,18,3,19,0.00
2012-10-11,66.7,53.6,37.4,50.4,45.9,36.6,97,78,54,30.31,30.17,16,2,16,0.00
2012-10-12,71.0,54.6,43.5,55.7,49.2,42.3,97,84,57,30.33,30.20,10,1,10,0.00
2012-10-13,66.7,54.8,46.6,50.1,47.7,44.1,95,80,49,30.45,30.31,13,2,13,0.00
2012-10-14,63.7,55.9,45.4,59.4,52.8,43.8,95,90,80,30.35,30.05,15,2,15,0.00
2012-10-15,72.9,62.6,52.5,60.5,49.8,34.0,97,69,31,30.05,29.79,20,4,22,0.65
2012-10-16,70.0,54.8,42.9,47.9,42.4,38.3,94,68,35,29.97,29.86,10,2,11,0.00
2012-10-17,68.0,51.9,39.6,47.8,42.9,38.4,97,76,39,30.01,29.89,18,2,18,0.01
2012-10-18,62.7,53.5,43.1,57.9,51.3,41.6,96,92,83,29.92,29.80,15,3,15,0.03
2012-10-19,66.3,52.8,39.3,51.5,38.6,28.1,97,66,29,29.82,29.70,23,3,23,0.01
2012-10-20,66.0,49.7,37.2,44.2,40.2,35.3,93,73,44,30.02,29.80,12,1,12,0.00
2012-10-21,71.0,50.1,34.8,49.4,41.9,33.8,98,78,38,30.20,30.01,8,1,9,0.00
2012-10-22,76.3,54.9,39.1,51.6,45.4,37.5,96,76,39,30.29,30.15,13,1,13,0.00
2012-10-23,76.2,57.0,42.2,54.1,47.7,40.9,96,76,35,30.24,30.10,15,2,15,0.00
2012-10-24,79.5,57.1,42.0,53.3,47.1,40.9,97,76,34,30.24,30.09,11,1,11,0.00
2012-10-25,73.7,56.4,41.8,55.5,48.7,40.5,96,79,50,30.18,30.09,12,1,14,0.00
2012-10-26,76.8,62.3,51.5,59.2,53.9,49.6,95,77,47,30.12,29.95,11,1,11,0.00
2012-10-27,69.8,58.2,49.2,55.1,51.5,47.3,94,80,57,29.98,29.75,16,2,16,0.00
2012-10-28,60.6,48.8,42.0,48.3,42.6,32.2,94,80,64,29.82,29.71,18,2,18,0.07
2012-10-29,47.9,42.8,40.5,33.1,30.1,26.1,70,61,53,29.78,29.62,31,5,32,0.00
2012-10-30,44.4,39.7,36.9,32.9,29.4,25.2,82,67,57,29.73,29.49,20,3,22,0.00
2012-10-31,44.1,38.2,36.7,34.3,32.9,31.9,86,81,68,29.78,29.71,4,0,4,0.00
2012-11-2,69.0,58.5,40.2,39.0,30.7,15.4,77,41,17,30.02,29.85,22,4,22,0.00
2012-11-3,73.0,50.8,33.5,48.5,36.6,30.8,91,65,29,30.13,29.99,16,1,18,0.00
2012-11-4,68.5,55.2,41.4,51.7,44.7,38.3,90,71,40,30.01,29.90,16,2,17,0.00
2012-11-5,58.5,44.8,32.1,38.3,32.7,23.3,95,69,29,30.09,29.98,10,1,10,0.00
2012-11-6,43.9,39.9,36.3,37.0,34.9,30.4,93,83,60,30.09,29.97,11,1,11,0.02
2012-11-7,46.1,40.6,36.9,40.8,36.6,33.6,94,86,71,30.05,29.89,16,2,17,0.08
2012-11-8,58.2,42.7,30.1,35.5,28.6,18.3,94,64,22,30.23,30.05,15,2,15,0.00
2012-11-9,66.0,42.9,26.3,37.4,29.7,24.0,93,67,22,30.35,30.23,8,1,9,0.00
2012-11-10,71.2,42.8,29.0,36.0,31.2,26.8,94,71,22,30.43,30.31,12,1,12,0.00
2012-11-11,63.7,49.1,30.6,53.0,40.9,28.6,94,75,47,30.50,30.39,22,2,22,0.00
2012-11-12,61.2,58.1,45.4,57.3,54.7,44.1,96,88,80,30.39,30.15,19,5,19,0.38
2012-11-13,54.9,43.7,29.8,44.0,32.1,21.8,96,68,30,30.41,30.20,17,3,19,0.10
2012-11-14,49.7,37.2,25.3,31.1,28.1,23.3,93,72,46,30.50,30.35,10,1,10,0.00
2012-11-15,58.6,43.2,33.9,43.4,36.5,29.2,95,78,50,30.38,30.22,8,1,8,0.19
2012-11-16,58.4,40.9,31.4,39.9,33.1,24.5,97,79,29,30.43,30.27,8,1,8,0.00
2012-11-17,57.1,40.2,27.6,33.5,26.4,17.3,95,64,21,30.51,30.41,13,2,13,0.01
2012-11-18,55.7,42.9,32.5,43.1,34.4,22.9,94,72,58,30.50,30.38,12,2,13,0.00
2012-11-19,60.6,45.3,31.6,50.2,41.3,30.3,96,87,68,30.41,30.23,5,1,5,0.00
2012-11-20,63.4,47.4,37.6,47.8,41.2,33.6,97,82,34,30.24,30.05,8,1,8,0.00
2012-11-21,64.7,46.0,33.1,43.3,37.1,31.8,96,75,39,30.23,30.12,12,1,14,0.00
2012-11-22,65.8,44.3,30.3,41.1,34.9,28.8,95,74,37,30.31,30.18,10,1,10,0.00
2012-11-23,65.6,44.8,28.5,46.2,35.3,27.0,95,72,41,30.23,29.99,20,2,20,0.00
2012-11-24,47.9,36.3,24.8,29.2,22.0,14.3,85,59,26,30.16,30.00,14,2,14,0.00
2012-11-25,53.1,35.2,21.1,24.4,20.0,16.0,85,59,27,30.22,30.08,14,2,14,0.00
2012-11-26,66.0,41.9,25.6,37.8,26.8,21.2,84,60,28,30.29,30.16,18,1,18,0.00
2012-11-27,57.1,47.2,42.4,48.0,41.8,36.3,90,82,66,30.23,30.09,14,2,14,0.02
2012-11-28,53.0,40.5,26.9,39.1,30.1,22.0,92,70,33,30.43,30.21,10,1,11,0.00
2012-11-29,55.5,37.2,24.1,39.9,30.2,20.8,94,77,53,30.51,30.38,14,1,16,0.00
2012-11-30,58.7,40.2,25.9,42.3,33.7,24.2,95,80,52,30.45,30.31,16,2,16,0.01
2012-12-1,62.5,43.6,30.5,46.8,37.9,29.2,95,82,54,30.46,30.34,14,1,14,0.00
2012-12-2,64.5,51.8,39.2,51.7,45.3,37.9,96,80,54,30.42,30.26,21,3,22,0.00
2012-12-3,70.8,51.4,38.6,50.9,44.0,36.8,96,79,48,30.35,30.23,14,1,14,0.00
2012-12-4,67.6,54.1,40.7,50.7,45.6,39.3,96,75,51,30.34,30.20,20,3,20,0.00
2012-12-5,61.7,54.8,49.8,55.0,48.8,38.0,92,80,64,30.20,30.11,8,2,9,0.01
2012-12-6,53.9,49.2,45.2,43.3,37.2,28.3,81,64,46,30.26,30.16,7,1,7,0.00
2012-12-7,60.6,47.9,40.9,52.4,43.5,36.2,97,85,70,30.20,29.99,16,2,16,0.04
2012-12-8,63.9,52.3,42.9,53.8,49.2,41.8,97,90,68,30.07,29.99,15,2,15,0.05
2012-12-9,62.4,56.8,49.1,56.5,54.1,47.6,97,91,79,30.09,29.97,14,3,15,0.06
2012-12-10,58.4,55.9,55.0,55.4,54.4,53.4,96,95,88,29.97,29.67,18,4,18,0.34
2012-12-11,55.6,41.4,33.8,53.9,36.3,29.8,95,83,67,30.18,29.72,12,3,13,0.00
2012-12-12,42.5,37.9,32.7,34.8,32.4,29.3,90,81,72,30.34,30.18,12,2,13,0.00
2012-12-13,53.7,38.1,0.0,33.5,29.4,24.3,89,58,39,30.41,30.30,12,2,12,0.00
2012-12-14,59.9,37.0,23.5,37.0,28.1,21.5,93,74,32,30.43,30.28,9,1,9,0.00
2012-12-15,59.1,43.2,31.6,39.4,34.0,28.3,89,72,40,30.31,30.10,18,3,19,0.00
2012-12-16,53.8,49.5,46.3,51.9,46.0,37.6,97,88,70,30.10,29.92,13,2,13,0.67
2012-12-17,51.6,49.8,47.4,50.1,48.9,45.9,100,97,93,29.92,29.67,14,3,16,0.24
2012-12-18,57.7,45.3,30.1,46.2,33.7,18.9,98,70,24,29.98,29.68,17,2,18,0.01
2012-12-19,65.0,45.1,30.5,41.9,33.1,21.3,92,65,35,30.14,29.97,14,2,14,0.00
2012-12-20,47.9,40.5,33.6,45.4,37.9,24.3,97,91,61,30.14,29.62,21,2,21,1.72
2012-12-21,36.6,35.4,35.0,25.4,25.0,24.4,67,66,62,29.73,29.70,23,9,23,0.00